Weather Roundup
Issued by NWS Springfield, MO

Home | Current Version | Previous Version | Text Only | Print | Product List | Glossary On
Versions: 1 2 3 4 5 6 7 8 9 10 11 12 13 14 15 16 17 18 19 20 21 22 23 24 25 26 27 28 29 30 31 32 33 34 35 36 37 38 39 40 41 42 43 44 45 46 47 48 49 50
000
NZUS99 KSGF 010059
HRRSGF

HOURLY WEATHER
NATIONAL WEATHER SERVICE SPRINGFIELD MO
700 PM CST SAT FEB 28 2015

......SGF CWA......

CITY           SKY/WX    TMP DP  RH WIND       PRES   REMARKS
SPRINGFIELD    LGT SNOW  25  22  88 SE12      30.34R FOG     WCI  14
JOPLIN         LGT SNOW  25  23  92 VRB5      30.36S FOG     WCI  19
WEST PLAINS    LGT SNOW  24  21  88 NE6       30.40S FOG     WCI  17
ROLLA          LGT SNOW  24  21  88 E8        30.38F VSB 1   WCI  15
OSAGE BEACH    CLOUDY    25  21  86 E5        30.39F WCI  19
BRANSON        FRZ RAIN  27  23  86 E6        30.37S WCI  20

......SURROUNDING SGF CWA......

CITY           SKY/WX    TMP DP  RH WIND       PRES   REMARKS
CHANUTE        CLOUDY    23  22  96 E3        30.36R
PARSONS        CLOUDY    25  23  92 CALM      30.36F
COFFEYVILLE    MIX PCPN  25  23  92 NE5       30.36F FOG     WCI  19
EMPORIA        CLOUDY    22  18  85 E3        30.35R
ROGERS AR      CLOUDY    25  23  93 E7        30.34F WCI  17
SILOAM SPRINGS CLOUDY    28  23  80 CALM      30.35R
HARRISON AR    MIX PCPN  25  23  92 SE8       30.37R FOG     WCI  16
NEAR YELLVILLE CLOUDY    27  21  80 CALM      30.41R

......KANSAS AND MISSOURI......

CITY           SKY/WX    TMP DP  RH WIND       PRES   REMARKS
KANSAS CTY INT CLOUDY    22  18  85 SE3       30.38R
DOWNTOWN KC    CLOUDY    24  18  77 E5        30.40R WCI  18
COLUMBIA       LGT SNOW  23  21  92 E7        30.41F VSB 1   WCI  15
SEDALIA        LGT SNOW  24  21  88 E6        30.39F FOG     WCI  17
ST JOSEPH      CLOUDY    23  18  81 SE5       30.40S WCI  17
ST LOUIS       NOT AVBL
SPIRIT OF STL  LGT SNOW  24  22  91 E5        30.47F VSB 3/4 WCI  18
KIRKSVILLE     LGT SNOW  20  18  92 SE8       30.42S FOG     WCI  10
WICHITA        CLOUDY    23  18  81 SE5       30.32R WCI  17
TOPEKA         CLOUDY    24  19  81 E3        30.39R
OLATHE         LGT SNOW  22  19  89 E3        30.37R FOG

......TENNESSEE......

CITY           SKY/WX    TMP DP  RH WIND       PRES   REMARKS
MEMPHIS        MOCLDY    43  22  43 N7        30.36R
NASHVILLE      MOCLDY    44  25  47 NE5       30.42F

......ARKANSAS.......

CITY           SKY/WX    TMP DP  RH WIND       PRES   REMARKS
FAYETTEVILLE   FRZ RAIN  29  29 100 NE3       30.33F FOG
FT SMITH       CLOUDY    29  26  89 E9        30.38R FOG     WCI  20
LITTLE ROCK    CLOUDY    37  23  56 NE7       30.40S WCI  32

......OKLAHOMA.......

CITY           SKY/WX    TMP DP  RH WIND       PRES   REMARKS
TULSA          FRZ DRZL  28  26  92 NE3       30.35S
PONCA CITY     CLOUDY    25  22  88 SE6       30.34R WCI  18
MCALESTER      MIX PCPN  30  27  88 NE6       30.34S FOG     WCI  24
OKLAHOMA CITY  FRZ DRZL  27  23  85 E3        30.30R FOG

......IOWA............

CITY           SKY/WX    TMP DP  RH WIND       PRES   REMARKS
DES MOINES     FLURRIES  21  16  81 SE6       30.39S WCI  13
QUAD CITIES    CLOUDY    17  10  74 E8        30.49F WCI   7

......ILLINOIS........

CITY           SKY/WX    TMP DP  RH WIND       PRES   REMARKS
QUINCY         LGT SNOW  20  17  88 SE7       30.45F FOG     WCI  11
CHICAGO        CLOUDY    20   4  50 S8        30.53R WCI  10



USA.gov is the U.S. government's official web portal to all federal, state and local government web resources and services.